Temperature
16 16 17 17 13 10 13 14 15 15 16 17 17 17 15 15 15 15 14 14 15 15 15 15 15 15 15 15 15 15 15 15 15 15 15 15 15 15 15 15 15 15 15 15 15 14 15 14 14
16 16 16 16 11 11 13 13 14 15 16 17 17 16 15 14 14 14 14 14 14 15 14 14 14 15 15 15 15 15 15 15 15 15 15 15 15 15 15 15 14 14 14 14 14 14 14 14 14
15 16 16 11 11 11 13 14 14 16 16 17 16 15 15 14 14 14 14 14 14 14 14 14 14 14 14 14 15 15 15 15 15 15 15 15 14 14 15 14 14 14 14 14 14 14 14 14 14
16 15 14 11 12 12 13 14 14 15 16 16 15 14 14 14 14 14 14 14 14 14 14 14 14 14 14 14 14 14 15 14 14 14 14 14 14 14 14 14 14 14 14 14 14 14 14 14 14
15 15 11 11 12 13 13 14 15 14 14 15 15 13 13 13 13 13 13 14 14 14 14 14 14 14 14 14 14 14 14 14 14 14 14 14 14 14 14 14 14 14 14 14 14 14 14 14 13
15 12 10 11 12 13 13 14 14 13 13 14 14 13 13 13 13 13 13 13 13 13 13 13 13 13 14 14 14 14 14 14 14 14 14 14 14 14 14 14 14 14 14 14 14 14 14 13 13
13 9 10 12 12 12 13 14 13 12 13 14 14 12 12 12 13 13 13 13 13 13 13 13 13 13 13 13 13 13 13 14 14 14 14 14 14 14 13 13 13 14 14 14 13 14 13 13 13
13 9 11 11 11 12 12 13 13 13 13 14 13 12 12 12 12 12 12 12 12 12 12 13 12 13 13 13 13 13 13 13 14 14 14 14 14 13 13 13 13 13 13 13 13 13 13 13 13
13 9 10 11 11 11 12 12 12 13 13 13 13 13 12 12 12 12 12 12 12 12 12 12 12 12 12 13 13 13 13 13 13 13 13 13 13 13 13 13 13 13 13 13 13 13 13 13 13
12 8 10 11 11 11 11 11 12 12 11 12 12 12 12 12 12 11 11 11 11 12 12 12 12 12 12 12 12 12 12 13 13 13 13 13 13 13 13 13 13 13 13 13 13 13 13 12 12
11 10 11 11 12 12 11 11 12 11 10 11 11 12 12 11 11 11 11 11 11 11 11 11 11 12 12 12 12 12 12 12 12 12 13 13 13 13 12 12 12 12 12 12 12 12 12 12 12
11 11 11 11 12 11 11 11 11 11 11 12 12 12 11 11 11 11 11 11 11 11 11 11 11 11 11 11 11 12 12 12 12 12 12 12 12 12 12 12 12 12 12 12 12 12 12 12 12
10 10 11 11 11 11 11 11 10 11 12 12 12 11 11 11 11 11 11 11 11 11 11 11 11 11 11 11 11 11 11 11 12 12 12 12 12 12 12 12 12 12 12 12 11 11 11 11 11
10 10 10 11 11 11 10 10 10 11 12 12 12 11 11 11 11 11 11 11 10 10 10 10 10 10 11 11 11 11 11 11 11 11 11 11 11 12 12 11 11 11 11 11 11 11 11 11 11
11 9 10 10 11 11 11 9 10 12 12 11 11 11 11 11 11 11 11 10 10 10 10 10 10 10 10 10 10 10 10 11 11 11 11 11 11 11 11 11 11 11 11 11 11 10 10 10 10
10 9 9 10 11 11 10 9 10 11 11 10 11 11 11 11 11 11 10 10 10 10 10 10 10 10 10 10 10 10 10 10 10 10 11 11 11 11 11 11 11 11 10 10 10 10 10 10 10
8 8 9 9 10 10 9 9 10 11 11 10 10 10 10 10 10 10 10 10 10 10 10 9 9 9 9 9 9 9 9 10 10 10 10 10 10 10 11 10 10 10 10 10 10 10 10 10 10
9 8 8 9 10 9 8 8 9 10 10 10 10 10 10 10 10 10 10 10 10 10 10 9 9 9 9 9 9 9 9 9 9 9 10 10 10 10 10 10 10 10 10 9 9 9 9 9 9
9 9 8 9 10 9 8 8 9 9 9 9 9 9 9 9 10 10 10 10 9 9 9 9 9 9 9 9 9 9 8 9 9 9 9 9 9 9 9 10 9 9 9 9 9 9 9 9 9
9 8 8 9 9 9 8 8 8 9 9 9 9 9 9 9 9 9 9 9 9 9 9 9 9 9 9 9 9 9 8 8 8 8 9 9 9 9 9 9 9 9 9 9 9 9 9 9 8
9 8 8 8 8 8 8 7 8 9 9 9 9 9 9 9 9 9 9 9 9 9 9 9 9 9 8 8 8 8 8 8 8 8 8 8 8 9 9 9 9 9 9 9 9 8 8 8 8
8 9 9 8 7 6 7 6 7 7 8 8 8 9 9 9 9 9 9 9 9 9 9 8 8 8 8 8 8 8 8 8 7 7 8 8 8 8 8 8 8 8 8 8 8 8 8 8 8
8 9 8 8 7 7 6 6 6 7 7 7 8 8 8 8 8 8 8 8 8 8 8 8 8 8 8 8 8 7 7 7 7 7 7 7 7 8 8 8 8 8 8 8 8 8 8 8 8
9 8 8 6 6 7 7 6 7 6 7 7 7 8 8 8 8 8 8 8 8 8 8 8 7 7 7 7 7 7 7 7 7 7 7 7 7 7 7 7 7 8 8 7 7 7 7 7 7
8 7 7 7 6 7 7 6 6 7 7 7 7 8 8 8 8 8 8 7 7 7 7 7 7 7 7 7 7 7 7 7 7 7 7 7 7 7 7 7 7 7 7 7 7 7 7 7 7
7 7 7 8 7 6 6 6 7 8 8 8 8 8 8 8 8 7 7 7 7 7 7 7 7 7 6 6 6 6 6 6 6 6 6 6 7 7 7 7 7 7 7 7 7 7 7 7 6
8 6 7 6 6 6 6 6 7 7 7 7 7 7 7 7 7 7 7 7 7 7 7 7 6 6 6 6 6 6 6 6 6 6 6 6 6 6 6 6 6 6 6 6 6 6 6 6 6
8 7 5 6 7 7 7 6 6 7 6 6 6 6 7 7 7 7 7 7 6 6 6 6 6 6 6 6 5 5 5 5 5 5 5 5 6 6 6 6 6 6 6 6 6 6 6 6 5
7 7 6 5 5 6 6 7 7 7 7 6 6 7 7 7 7 7 6 6 6 6 6 6 6 6 6 5 5 5 5 5 5 5 5 5 5 5 6 6 6 6 5 5 5 5 5 5 5
7 7 6 6 6 5 5 7 8 7 7 7 7 7 7 7 7 6 6 6 6 6 6 6 5 5 5 5 5 5 5 5 5 5 5 5 5 5 5 5 5 5 5 5 5 5 5 5 5
Wind_Speed
16 13 3 4 6 6 1 2 1 3 3 3 2 3 5 3 2 3 2 0 3 3 3 4 5 5 5 6 7 7 8 8 9 9 9 9 10 10 9 9 9 10 10 10 10 10 10 10 10
11 4 5 5 5 3 2 3 1 2 2 2 3 4 5 4 3 3 1 1 4 4 4 4 5 6 5 6 7 7 7 7 8 9 9 9 9 9 9 9 9 10 10 10 10 10 10 9 8
7 3 5 5 4 5 3 2 3 3 3 3 3 4 3 2 2 0 1 1 3 3 3 4 6 5 5 5 6 7 7 7 8 8 9 8 8 9 9 9 9 9 9 10 10 9 9 8 7
4 5 5 5 3 2 3 3 2 2 4 5 3 4 3 2 0 1 0 3 3 2 3 4 6 5 5 5 6 7 7 8 8 7 8 8 8 8 8 8 9 9 9 9 9 9 9 8 7
4 5 5 3 1 1 1 2 1 2 2 3 3 2 2 4 2 3 3 3 4 2 2 3 4 5 5 5 6 6 7 7 8 7 7 8 8 7 8 8 8 9 9 9 9 9 8 8 7
5 5 5 2 1 1 2 3 3 3 3 3 3 2 1 2 2 2 2 2 3 2 2 2 4 4 4 4 5 6 7 7 7 7 7 7 8 8 7 8 8 9 9 9 9 8 8 7 7
5 5 4 3 1 1 2 3 3 2 3 3 1 2 1 3 2 1 2 2 2 2 2 2 2 3 4 4 4 6 6 7 7 7 7 7 8 8 8 8 8 9 9 8 8 8 8 7 6
5 5 3 1 1 1 3 3 2 2 3 3 1 2 3 4 3 2 2 2 2 1 1 1 1 2 3 4 4 5 6 6 6 7 7 7 7 8 8 8 9 9 9 8 7 7 7 6 6
4 5 2 1 1 2 2 3 4 3 2 3 2 1 3 3 1 3 3 3 2 1 1 0 1 2 3 4 4 5 6 6 6 6 7 6 6 7 7 8 9 9 8 8 7 6 6 6 6
5 3 2 2 2 2 2 2 3 4 5 3 4 3 1 1 0 1 1 2 2 2 2 0 0 1 2 3 4 3 4 5 5 4 5 6 6 6 6 8 8 8 8 7 6 6 5 5 5
3 4 2 1 1 1 2 3 1 1 3 4 4 3 2 2 1 2 3 3 3 3 2 1 1 1 2 2 4 3 3 4 4 4 5 6 6 5 5 5 6 6 6 5 5 5 4 5 5
2 0 1 2 1 1 2 2 2 3 6 6 5 4 4 3 4 4 4 4 3 2 2 1 1 1 2 2 3 3 3 3 3 5 6 6 4 3 4 3 4 4 5 4 4 4 5 5 5
1 1 1 2 3 3 3 4 3 5 8 7 5 3 4 4 5 4 4 3 3 2 2 2 2 2 2 2 2 2 3 3 4 5 6 7 5 4 3 3 3 4 5 4 4 4 4 4 4
1 1 3 4 4 2 2 4 2 7 5 3 4 3 4 4 5 3 3 3 3 3 3 2 2 1 2 2 1 1 2 3 4 5 6 7 6 5 4 3 3 3 5 5 5 4 4 3 4
1 2 4 3 3 2 0 5 4 7 3 3 4 4 4 4 3 3 4 3 3 3 3 2 3 2 1 1 2 2 2 3 3 4 6 7 7 7 5 4 3 3 5 6 5 5 5 3 4
2 2 3 5 2 1 2 5 8 5 2 4 5 5 4 4 3 3 3 2 2 2 2 3 2 2 2 1 1 1 1 2 2 3 5 6 6 7 6 4 3 4 5 5 4 3 3 3 3
2 1 3 5 2 0 1 6 8 5 3 5 5 5 4 4 3 4 3 2 2 3 3 3 3 3 3 3 2 1 1 1 1 3 3 5 6 7 5 4 3 5 4 3 3 2 3 3 2
3 3 3 5 3 1 3 7 9 6 3 4 4 5 5 4 5 4 3 2 2 2 3 3 3 3 3 3 3 2 2 2 1 2 3 4 5 6 5 4 4 4 3 2 2 3 2 2 2
4 3 5 6 3 2 5 7 9 6 3 4 5 5 6 5 5 3 2 1 1 1 2 3 4 3 3 3 3 2 1 1 1 1 3 3 4 5 5 4 4 3 3 3 3 3 3 2 2
2 3 4 4 2 2 4 7 7 4 3 4 4 5 6 5 5 4 2 1 1 2 2 3 3 3 3 3 3 2 1 0 0 1 2 3 3 3 4 4 3 3 3 3 3 3 2 1 2
2 4 4 4 4 2 2 5 4 4 3 3 3 4 5 4 4 3 1 0 0 1 2 3 3 3 3 3 3 3 2 2 1 1 1 1 3 3 4 4 4 3 2 3 3 3 3 3 1
4 4 3 2 1 3 1 4 6 4 5 4 5 4 4 4 3 2 1 1 0 1 1 3 3 3 3 4 4 5 3 2 1 1 1 1 2 2 3 4 4 3 2 3 3 2 2 4 3
5 3 2 2 2 2 1 2 7 3 4 6 4 4 4 4 3 2 1 1 0 0 1 2 3 3 3 3 4 4 2 2 1 1 1 1 1 2 3 3 4 3 2 3 2 2 3 3 3
1 3 4 4 3 2 3 4 6 4 5 4 4 4 3 3 3 2 1 1 1 1 2 2 3 2 2 2 3 3 3 3 3 2 1 1 0 1 2 3 3 3 2 3 3 2 3 3 2
3 4 3 4 3 5 2 3 7 7 5 4 4 4 3 3 3 2 1 1 0 1 2 2 3 2 2 2 2 2 3 4 4 3 3 2 1 1 1 1 2 2 2 3 3 3 3 3 3
3 5 5 3 4 5 3 5 7 5 3 2 2 2 2 3 2 2 2 1 2 2 3 3 3 2 3 2 2 2 3 2 2 2 2 3 2 2 2 2 2 2 3 3 3 2 3 3 3
4 3 5 4 2 3 5 6 6 3 2 1 1 2 2 3 2 2 2 1 2 3 3 4 3 2 3 2 2 2 2 3 2 2 1 1 1 1 1 1 1 2 2 3 3 2 3 3 3
4 5 4 3 2 4 6 5 5 5 5 3 2 2 3 3 3 2 2 1 1 2 2 3 3 3 3 3 3 2 2 3 3 2 2 1 1 1 1 1 1 2 2 2 2 2 3 3 3
4 4 4 3 4 4 4 7 6 7 6 5 4 4 3 3 2 2 2 2 0 0 1 2 2 2 2 2 2 2 2 3 3 3 3 2 2 2 2 2 2 2 3 3 3 3 3 4 4
6 7 7 4 5 4 3 7 4 4 4 4 3 3 3 3 2 2 2 1 1 1 0 1 2 2 2 2 2 2 2 3 3 3 3 3 3 2 3 2 2 3 3 3 4 4 4 5 5
Wind_Direction
331 333 32 54 58 57 112 275 285 342 345 314 324 85 102 94 99 142 208 313 121 136 138 138 124 119 122 129 135 135 132 127 126 124 121 121 123 122 120 115 116 116 111 109 108 105 103 100 96
328 350 49 59 89 98 274 278 297 281 273 328 28 59 64 58 63 98 13 355 123 125 118 125 121 118 118 125 129 137 135 131 128 129 127 124 126 127 124 119 116 114 111 109 110 107 103 100 95
335 48 73 73 107 162 188 239 226 275 349 28 30 38 62 61 56 113 263 134 108 108 108 126 122 125 123 124 132 135 136 133 129 130 134 132 129 132 130 125 120 116 114 113 113 111 107 102 97
45 46 57 76 116 198 187 245 258 338 5 24 62 43 32 22 345 225 136 93 89 82 101 127 130 122 128 127 135 138 139 138 133 132 137 137 134 130 132 130 124 121 121 119 118 116 110 103 99
59 72 67 62 157 251 276 292 11 37 1 360 58 72 4 341 32 78 79 87 83 62 78 130 130 132 128 135 134 141 141 145 143 140 138 142 142 137 133 134 132 131 128 124 121 119 113 106 97
53 68 90 133 213 294 336 339 36 29 357 359 44 86 281 317 41 53 69 83 91 77 65 130 143 149 142 135 140 146 149 154 153 150 146 144 146 144 137 136 139 138 134 130 126 122 117 110 99
91 91 130 154 170 329 337 341 53 6 357 323 347 89 275 303 297 32 73 86 80 77 79 108 143 160 162 148 141 148 151 152 158 157 151 148 149 147 143 136 137 139 135 131 130 130 123 118 106
110 97 90 89 142 259 325 353 34 8 296 307 62 127 247 264 287 356 30 53 56 69 75 86 122 158 160 159 156 150 155 151 155 160 154 151 149 149 144 138 138 137 136 134 133 132 128 117 105
81 78 123 183 171 256 329 5 332 320 337 341 353 240 243 236 329 23 15 7 7 5 346 17 145 151 151 155 150 147 157 154 150 153 148 136 133 140 143 136 137 137 136 135 136 134 127 117 104
75 119 189 199 177 221 307 336 318 348 339 323 329 332 317 194 100 32 307 294 299 294 287 271 250 171 148 150 136 133 142 143 137 133 136 133 127 129 138 138 136 134 133 133 133 132 124 115 98
96 156 192 244 210 238 295 307 311 336 291 265 276 281 263 250 252 241 249 250 248 243 254 281 210 156 137 137 135 128 136 141 136 131 139 135 127 123 122 125 126 124 122 115 118 114 109 109 108
90 212 205 246 279 291 272 278 295 241 244 253 251 242 226 237 249 248 247 253 250 236 241 228 186 159 148 142 140 141 137 146 147 151 149 138 127 120 123 122 124 115 111 104 105 108 109 104 115
80 261 287 267 286 265 267 261 253 264 262 272 274 268 239 233 245 250 249 247 245 242 242 219 182 176 156 142 157 162 158 169 162 151 154 149 144 147 140 134 124 115 113 107 99 100 100 96 96
190 279 289 278 270 261 252 281 256 267 267 294 304 285 257 239 239 256 271 260 244 230 226 209 168 160 142 147 157 186 178 175 155 152 155 152 146 144 139 135 120 118 123 123 118 110 104 94 95
45 353 327 270 242 240 204 317 256 258 284 314 311 299 275 257 248 247 248 244 239 225 209 181 162 121 95 161 167 167 167 163 160 157 155 151 145 145 140 135 133 129 127 121 110 102 95 96 95
28 28 325 288 242 230 112 276 279 276 293 294 301 306 290 270 256 247 245 243 234 212 197 185 166 133 100 74 122 132 148 163 161 156 154 151 150 148 138 136 138 136 126 120 119 116 103 95 92
33 330 275 291 288 336 158 261 284 305 293 288 292 303 294 288 280 260 250 236 219 209 195 176 155 143 124 86 58 63 93 106 133 139 144 151 151 148 142 140 138 135 125 122 135 122 124 119 104
240 255 263 267 281 318 268 265 285 297 291 290 293 302 300 292 279 269 262 251 219 198 176 157 150 150 133 107 82 57 53 40 77 113 127 139 147 148 142 136 134 131 128 126 133 134 121 131 131
206 220 253 257 262 286 261 273 286 293 306 303 298 292 295 288 287 288 275 260 175 140 139 145 148 159 146 135 127 109 72 22 20 78 112 126 140 147 142 139 136 136 146 151 145 142 128 114 114
211 235 260 280 277 264 275 281 278 283 279 269 274 286 291 301 316 321 313 346 150 160 158 157 160 163 161 154 143 131 129 119 182 73 84 118 135 150 148 139 143 145 147 146 144 135 136 136 126
253 211 228 257 317 337 338 310 286 300 299 295 293 294 298 298 299 312 307 281 140 181 183 175 173 157 142 124 115 105 78 61 46 58 86 104 138 145 141 144 139 140 152 168 171 162 152 165 180
255 232 224 254 352 290 68 295 284 283 302 303 302 307 317 317 313 314 302 305 249 231 194 171 159 147 141 133 134 145 148 154 210 189 183 114 116 135 143 140 142 148 153 165 182 176 167 162 179
229 253 248 238 199 301 280 217 285 293 285 284 288 298 306 312 320 314 290 238 224 123 138 147 149 150 151 148 143 146 140 133 126 131 150 134 122 138 144 146 148 155 167 174 171 172 167 174 181
193 36 35 48 75 294 239 192 279 255 249 268 276 289 294 309 319 320 314 354 46 80 106 129 145 159 157 142 140 149 150 144 140 149 167 165 181 149 152 157 158 161 171 181 181 174 171 180 179
80 80 27 356 351 259 272 215 255 256 248 236 250 273 289 307 314 315 325 335 133 127 134 151 156 160 155 143 151 165 162 162 170 176 183 185 234 267 213 176 172 176 179 178 171 174 179 179 184
181 145 159 213 243 281 301 246 257 265 272 265 259 272 303 317 314 293 256 224 199 183 174 172 169 169 160 155 160 160 157 158 168 174 181 182 209 226 207 182 181 182 177 181 177 185 198 188 188
149 186 172 147 217 271 275 279 296 269 299 303 323 338 306 307 313 304 288 255 201 193 194 185 181 178 174 168 155 158 163 161 168 165 162 169 198 220 182 172 182 187 186 186 184 192 201 195 204
161 150 111 144 199 266 285 271 251 247 251 266 280 273 280 306 323 328 320 294 224 204 198 180 184 191 188 181 179 176 177 174 171 163 181 198 207 201 180 187 200 207 206 196 199 205 204 204 218
163 167 163 167 183 195 265 269 233 216 215 223 238 245 251 261 279 296 318 318 346 145 168 182 190 184 188 196 197 184 186 180 172 183 201 204 207 201 199 206 216 225 219 208 203 217 210 211 224
188 190 168 180 224 205 224 267 267 215 209 206 226 246 249 245 258 286 313 342 41 68 141 185 198 192 204 202 199 198 192 181 188 207 214 202 205 208 208 206 213 231 231 218 207 216 218 217 225
Height
1517 1517 1518 1520 1525 1539 1541 1535 1530 1527 1525 1524 1523 1522 1522 1525 1528 1533 1530 1528 1528 1528 1529 1529 1529 1529 1529 1530 1530 1531 1531 1532 1532 1532 1533 1533 1534 1534 1534 1535 1535 1536 1536 1537 1537 1538 1538 1539 1539
1517 1517 1520 1520 1533 1547 1543 1534 1530 1527 1525 1524 1523 1523 1523 1525 1527 1528 1527 1527 1528 1528 1528 1528 1529 1529 1529 1529 1529 1530 1531 1531 1531 1532 1532 1533 1533 1534 1534 1535 1535 1536 1536 1537 1537 1538 1538 1539 1539
1517 1518 1520 1525 1537 1543 1538 1531 1529 1526 1525 1524 1524 1524 1525 1527 1527 1527 1527 1527 1527 1527 1527 1527 1528 1528 1528 1528 1528 1529 1530 1530 1531 1531 1531 1532 1533 1533 1534 1534 1535 1535 1536 1537 1537 1538 1538 1539 1540
1518 1520 1523 1532 1536 1535 1532 1529 1527 1526 1525 1524 1524 1526 1527 1528 1528 1527 1527 1526 1526 1526 1526 1526 1527 1527 1527 1527 1527 1528 1528 1529 1530 1530 1531 1531 1532 1533 1533 1534 1535 1535 1536 1536 1537 1538 1538 1539 1540
1518 1520 1529 1538 1535 1533 1530 1528 1527 1526 1526 1526 1525 1526 1527 1528 1527 1527 1526 1526 1525 1525 1525 1525 1525 1526 1526 1526 1526 1526 1527 1528 1529 1529 1530 1530 1531 1532 1533 1533 1534 1535 1535 1536 1537 1537 1538 1539 1540
1520 1522 1537 1541 1536 1532 1530 1529 1527 1527 1527 1526 1526 1526 1527 1528 1526 1526 1525 1525 1524 1524 1524 1524 1524 1524 1524 1524 1524 1525 1525 1526 1527 1528 1529 1530 1530 1531 1532 1533 1533 1534 1535 1535 1536 1537 1538 1539 1539
1522 1528 1536 1536 1536 1533 1531 1529 1529 1529 1527 1527 1526 1527 1526 1526 1526 1525 1524 1524 1523 1523 1522 1522 1522 1522 1522 1522 1523 1523 1524 1525 1526 1527 1528 1529 1529 1530 1531 1532 1533 1533 1534 1535 1535 1536 1537 1538 1539
1522 1528 1534 1537 1536 1534 1531 1530 1530 1529 1528 1528 1527 1526 1526 1525 1524 1524 1523 1522 1522 1521 1521 1520 1520 1520 1520 1521 1521 1521 1522 1523 1524 1525 1526 1527 1528 1529 1530 1531 1532 1532 1533 1534 1535 1536 1537 1538 1538
1524 1534 1538 1535 1534 1533 1531 1530 1529 1529 1528 1527 1526 1526 1525 1524 1522 1521 1520 1520 1519 1519 1519 1518 1518 1518 1518 1518 1519 1519 1520 1521 1522 1523 1524 1525 1526 1527 1528 1529 1530 1531 1532 1533 1534 1535 1536 1537 1538
1525 1536 1534 1532 1531 1531 1530 1529 1529 1528 1527 1525 1524 1524 1523 1522 1520 1519 1517 1517 1516 1516 1516 1516 1516 1515 1515 1516 1516 1517 1518 1519 1520 1521 1522 1523 1524 1525 1526 1528 1529 1530 1531 1532 1533 1534 1535 1536 1537
1527 1532 1531 1530 1530 1529 1529 1528 1528 1527 1526 1524 1523 1521 1521 1520 1518 1517 1516 1515 1514 1514 1514 1513 1513 1513 1513 1513 1514 1515 1515 1517 1518 1519 1520 1522 1523 1524 1525 1526 1527 1528 1530 1531 1532 1533 1534 1535 1536
1529 1530 1529 1529 1529 1528 1528 1527 1527 1525 1524 1522 1521 1520 1519 1517 1516 1515 1513 1513 1512 1512 1511 1511 1511 1511 1511 1511 1511 1512 1513 1514 1515 1516 1518 1519 1520 1522 1523 1525 1525 1527 1528 1529 1531 1532 1533 1534 1535
1529 1530 1529 1528 1527 1527 1526 1525 1525 1522 1521 1520 1519 1518 1517 1515 1514 1512 1511 1511 1510 1509 1509 1509 1508 1508 1508 1509 1509 1510 1511 1512 1513 1514 1515 1517 1518 1520 1521 1523 1524 1525 1526 1528 1529 1531 1532 1533 1534
1529 1529 1528 1527 1526 1525 1525 1523 1523 1520 1519 1518 1516 1515 1514 1513 1511 1510 1508 1507 1507 1506 1506 1506 1506 1506 1506 1507 1507 1508 1509 1510 1510 1511 1513 1515 1516 1518 1519 1521 1522 1524 1525 1527 1528 1530 1531 1532 1533
1529 1530 1528 1526 1525 1524 1524 1524 1521 1518 1517 1516 1514 1513 1511 1510 1508 1507 1506 1504 1504 1504 1504 1503 1504 1504 1504 1504 1505 1506 1507 1508 1509 1509 1511 1513 1514 1516 1517 1519 1521 1522 1524 1525 1527 1528 1530 1531 1532
1530 1533 1534 1526 1524 1523 1527 1527 1518 1517 1516 1514 1512 1510 1508 1506 1506 1504 1503 1502 1501 1501 1500 1501 1502 1502 1502 1502 1503 1504 1505 1506 1506 1507 1509 1511 1512 1514 1515 1517 1519 1520 1522 1524 1525 1527 1528 1529 1530
1534 1537 1534 1528 1523 1523 1525 1524 1517 1515 1514 1512 1511 1508 1506 1504 1503 1502 1500 1499 1498 1498 1498 1498 1499 1500 1500 1501 1501 1501 1503 1504 1505 1506 1507 1508 1511 1512 1514 1515 1517 1519 1520 1522 1523 1525 1526 1527 1528
1535 1536 1533 1530 1524 1523 1524 1521 1516 1514 1513 1511 1509 1507 1504 1501 1500 1499 1497 1496 1495 1495 1496 1496 1497 1497 1498 1499 1499 1500 1500 1502 1503 1504 1505 1507 1509 1511 1512 1514 1515 1517 1518 1520 1521 1523 1524 1525 1526
1529 1531 1532 1527 1522 1523 1522 1519 1514 1512 1510 1509 1507 1505 1503 1500 1498 1496 1495 1493 1493 1493 1493 1494 1495 1496 1496 1496 1497 1497 1498 1499 1501 1503 1504 1505 1507 1509 1510 1512 1513 1515 1517 1518 1519 1520 1522 1523 1524
1527 1530 1529 1525 1522 1522 1521 1518 1513 1510 1508 1507 1505 1502 1500 1498 1495 1494 1492 1492 1491 1491 1492 1493 1493 1494 1494 1494 1494 1496 1497 1498 1499 1501 1502 1504 1506 1507 1509 1510 1512 1513 1515 1516 1517 1518 1519 1520 1521
1526 1527 1526 1526 1523 1522 1523 1520 1513 1508 1507 1505 1503 1501 1498 1496 1494 1492 1491 1490 1490 1490 1490 1491 1491 1492 1492 1493 1493 1494 1495 1496 1497 1498 1500 1502 1504 1506 1508 1509 1510 1511 1512 1514 1515 1516 1516 1517 1519
1526 1522 1522 1523 1527 1530 1526 1530 1515 1511 1508 1504 1502 1500 1497 1495 1493 1491 1490 1489 1489 1489 1489 1489 1490 1490 1491 1491 1491 1491 1492 1494 1495 1496 1498 1500 1502 1504 1505 1506 1508 1509 1510 1512 1513 1514 1515 1515 1516
1522 1520 1521 1522 1525 1529 1527 1530 1519 1511 1508 1504 1501 1498 1496 1494 1492 1490 1489 1488 1488 1488 1488 1488 1489 1489 1489 1490 1490 1490 1491 1493 1494 1495 1497 1498 1500 1502 1503 1504 1506 1507 1508 1509 1510 1511 1512 1513 1513
1519 1521 1523 1527 1529 1529 1524 1529 1519 1511 1504 1501 1499 1497 1495 1493 1491 1489 1488 1488 1487 1487 1487 1487 1488 1488 1488 1489 1489 1490 1490 1491 1492 1493 1494 1496 1497 1499 1500 1502 1503 1504 1505 1506 1507 1509 1509 1510 1511
1520 1527 1534 1533 1536 1528 1522 1523 1515 1503 1499 1498 1496 1495 1493 1492 1490 1488 1487 1486 1486 1485 1486 1486 1487 1487 1487 1487 1488 1488 1489 1490 1491 1491 1492 1493 1494 1496 1497 1499 1500 1501 1502 1504 1504 1505 1506 1507 1508
1521 1524 1531 1532 1533 1530 1524 1521 1508 1499 1497 1496 1495 1494 1492 1490 1489 1487 1486 1485 1485 1485 1485 1485 1485 1486 1486 1486 1486 1487 1487 1488 1489 1490 1490 1491 1492 1494 1495 1496 1497 1498 1499 1500 1501 1502 1503 1504 1505
1520 1524 1523 1531 1531 1531 1524 1515 1505 1498 1497 1495 1494 1493 1491 1489 1488 1486 1485 1484 1484 1484 1484 1484 1484 1484 1484 1484 1485 1485 1486 1486 1487 1488 1488 1489 1491 1492 1492 1493 1495 1496 1497 1497 1498 1499 1499 1500 1501
1515 1518 1527 1528 1527 1526 1519 1515 1508 1499 1497 1495 1493 1491 1490 1488 1487 1486 1485 1484 1483 1483 1482 1483 1483 1483 1483 1483 1483 1484 1484 1484 1485 1486 1486 1487 1488 1489 1490 1490 1492 1493 1494 1494 1495 1495 1496 1497 1497
1516 1517 1520 1525 1527 1525 1523 1512 1495 1492 1492 1492 1491 1490 1489 1488 1486 1485 1484 1483 1482 1482 1481 1481 1481 1481 1481 1482 1482 1482 1482 1483 1483 1484 1484 1485 1486 1486 1487 1488 1489 1490 1490 1490 1491 1491 1492 1492 1493
1509 1510 1515 1521 1521 1522 1521 1509 1489 1489 1489 1489 1489 1488 1488 1487 1486 1485 1484 1482 1481 1481 1480 1480 1480 1480 1480 1480 1480 1480 1480 1480 1481 1481 1482 1483 1483 1484 1484 1485 1486 1486 1486 1487 1487 1487 1487 1487 1488